Time,TemperatureF,DewpointF,PressureIn,WindDirection,WindDirectionDegrees,WindSpeedMPH,WindSpeedGustMPH,Humidity,HourlyPrecipIn,Conditions,Clouds,dailyrainin,SolarRadiationWatts/m^2,SoftwareType,DateUTC
2013-04-15 00:02:00,34.0,26.0,-100.00,East,96,1.0,5.0,71,-99.99,,,0.00,0.000000,,2013-04-15 06:02:00,
2013-04-15 00:12:00,34.0,26.0,-100.00,East,96,1.0,5.0,71,-99.99,,,0.00,0.000000,,2013-04-15 06:12:00,
2013-04-15 00:42:00,32.0,24.0,-100.00,NNW,346,6.0,14.0,72,-99.99,,,0.00,0.000000,,2013-04-15 06:42:00,
2013-04-15 00:52:00,32.0,24.0,-100.00,NNW,346,6.0,14.0,72,-99.99,,,0.00,0.000000,,2013-04-15 06:52:00,
2013-04-15 01:02:00,32.0,24.0,-100.00,NNW,346,6.0,14.0,72,-99.99,,,0.00,0.000000,,2013-04-15 07:02:00,
2013-04-15 01:42:00,30.0,19.0,-100.00,North,353,6.0,16.0,62,-99.99,,,0.00,0.000000,,2013-04-15 07:42:00,
2013-04-15 01:53:00,30.0,19.0,-100.00,North,353,6.0,16.0,62,-99.99,,,0.00,0.000000,,2013-04-15 07:53:00,
2013-04-15 02:02:00,30.0,19.0,-100.00,North,353,6.0,16.0,62,-99.99,,,0.00,0.000000,,2013-04-15 08:02:00,
2013-04-15 02:12:00,30.0,19.0,-100.00,North,353,6.0,16.0,62,-99.99,,,0.00,0.000000,,2013-04-15 08:12:00,
2013-04-15 02:42:00,28.0,15.0,-100.00,North,353,6.0,13.0,57,-99.99,,,0.00,0.000000,,2013-04-15 08:42:00,
2013-04-15 02:52:00,28.0,15.0,-100.00,North,353,6.0,13.0,57,-99.99,,,0.00,0.000000,,2013-04-15 08:52:00,
2013-04-15 03:02:00,28.0,15.0,-100.00,North,353,6.0,13.0,57,-99.99,,,0.00,0.000000,,2013-04-15 09:02:00,
2013-04-15 03:12:00,28.0,15.0,-100.00,North,353,6.0,13.0,57,-99.99,,,0.00,0.000000,,2013-04-15 09:12:00,
2013-04-15 03:42:00,27.0,13.0,-100.00,North,0,4.0,10.0,56,-99.99,,,0.00,0.000000,,2013-04-15 09:42:00,
2013-04-15 03:53:00,27.0,13.0,-100.00,North,0,4.0,10.0,56,-99.99,,,0.00,0.000000,,2013-04-15 09:53:00,
2013-04-15 04:02:00,27.0,13.0,-100.00,North,0,4.0,10.0,56,-99.99,,,0.00,0.000000,,2013-04-15 10:02:00,
2013-04-15 04:12:00,27.0,13.0,-100.00,North,0,4.0,10.0,56,-99.99,,,0.00,0.000000,,2013-04-15 10:12:00,
2013-04-15 04:42:00,27.0,13.0,-100.00,NNE,14,2.0,8.0,54,-99.99,,,0.00,0.000000,,2013-04-15 10:42:00,
2013-04-15 04:53:00,27.0,13.0,-100.00,NNE,14,2.0,8.0,54,-99.99,,,0.00,0.000000,,2013-04-15 10:53:00,
2013-04-15 05:03:00,27.0,13.0,-100.00,NNE,14,2.0,8.0,54,-99.99,,,0.00,0.000000,,2013-04-15 11:03:00,
2013-04-15 05:12:00,27.0,13.0,-100.00,NNE,14,2.0,8.0,54,-99.99,,,0.00,0.000000,,2013-04-15 11:12:00,
2013-04-15 05:42:00,26.0,12.0,-100.00,NNE,29,3.0,10.0,54,-99.99,,,0.00,0.000000,,2013-04-15 11:42:00,
2013-04-15 05:53:00,26.0,12.0,-100.00,NNE,29,3.0,10.0,54,-99.99,,,0.00,0.000000,,2013-04-15 11:53:00,
2013-04-15 06:03:00,26.0,12.0,-100.00,NNE,29,3.0,10.0,54,-99.99,,,0.00,0.000000,,2013-04-15 12:03:00,
2013-04-15 06:13:00,26.0,12.0,-100.00,NNE,29,3.0,10.0,54,-99.99,,,0.00,0.000000,,2013-04-15 12:13:00,
2013-04-15 06:43:00,26.0,12.0,-100.00,NNE,30,4.0,10.0,54,-99.99,,,0.00,0.000000,,2013-04-15 12:43:00,
2013-04-15 06:53:00,26.0,12.0,-100.00,NNE,30,4.0,10.0,54,-99.99,,,0.00,0.000000,,2013-04-15 12:53:00,
2013-04-15 07:03:00,26.0,12.0,-100.00,NNE,30,4.0,10.0,54,-99.99,,,0.00,0.000000,,2013-04-15 13:03:00,
2013-04-15 07:12:00,26.0,12.0,-100.00,NNE,30,4.0,10.0,54,-99.99,,,0.00,0.000000,,2013-04-15 13:12:00,
2013-04-15 07:42:00,25.0,11.0,-100.00,NE,41,2.0,7.0,54,-99.99,,,0.00,22.200001,,2013-04-15 13:42:00,
2013-04-15 07:53:00,25.0,11.0,-100.00,NE,41,2.0,7.0,54,-99.99,,,0.00,22.200001,,2013-04-15 13:53:00,
2013-04-15 08:04:00,25.0,11.0,-100.00,NE,41,2.0,7.0,54,-99.99,,,0.00,22.200001,,2013-04-15 14:04:00,
2013-04-15 08:12:00,25.0,11.0,-100.00,NE,41,2.0,7.0,54,-99.99,,,0.00,22.200001,,2013-04-15 14:12:00,
2013-04-15 08:44:00,26.0,12.0,-100.00,NNE,13,3.0,9.0,54,-99.99,,,0.00,74.379997,,2013-04-15 14:44:00,
2013-04-15 08:54:00,26.0,12.0,-100.00,NNE,13,3.0,9.0,54,-99.99,,,0.00,74.379997,,2013-04-15 14:54:00,
2013-04-15 09:03:00,26.0,12.0,-100.00,NNE,13,3.0,9.0,54,-99.99,,,0.00,74.379997,,2013-04-15 15:03:00,
2013-04-15 09:12:00,26.0,12.0,-100.00,NNE,13,3.0,9.0,54,-99.99,,,0.00,74.379997,,2013-04-15 15:12:00,
2013-04-15 09:43:00,30.0,12.0,-100.00,North,7,4.0,10.0,45,-99.99,,,0.00,243.360001,,2013-04-15 15:43:00,
2013-04-15 09:54:00,30.0,12.0,-100.00,North,7,4.0,10.0,45,-99.99,,,0.00,243.360001,,2013-04-15 15:54:00,
2013-04-15 10:04:00,30.0,12.0,-100.00,North,7,4.0,10.0,45,-99.99,,,0.00,243.360001,,2013-04-15 16:04:00,
2013-04-15 10:12:00,30.0,12.0,-100.00,North,7,4.0,10.0,45,-99.99,,,0.00,243.360001,,2013-04-15 16:12:00,
2013-04-15 10:43:00,34.0,13.0,-100.00,NNW,348,5.0,13.0,42,-99.99,,,0.00,481.269989,,2013-04-15 16:43:00,
2013-04-15 10:53:00,34.0,13.0,-100.00,NNW,348,5.0,13.0,42,-99.99,,,0.00,481.269989,,2013-04-15 16:53:00,
2013-04-15 11:03:00,34.0,13.0,-100.00,NNW,348,5.0,13.0,42,-99.99,,,0.00,481.269989,,2013-04-15 17:03:00,
2013-04-15 11:13:00,34.0,13.0,-100.00,NNW,348,5.0,13.0,42,-99.99,,,0.00,481.269989,,2013-04-15 17:13:00,
2013-04-15 11:43:00,36.0,13.0,-100.00,North,350,5.0,12.0,39,-99.99,,,0.00,596.669983,,2013-04-15 17:43:00,
2013-04-15 11:52:00,36.0,13.0,-100.00,North,350,5.0,12.0,39,-99.99,,,0.00,596.669983,,2013-04-15 17:52:00,
2013-04-15 12:02:00,36.0,13.0,-100.00,North,350,5.0,12.0,39,-99.99,,,0.00,596.669983,,2013-04-15 18:02:00,
2013-04-15 12:12:00,36.0,13.0,-100.00,North,350,5.0,12.0,39,-99.99,,,0.00,596.669983,,2013-04-15 18:12:00,
2013-04-15 12:42:00,38.0,14.0,-100.00,NNW,342,6.0,14.0,37,-99.99,,,0.00,570.179993,,2013-04-15 18:42:00,
2013-04-15 12:52:00,38.0,14.0,-100.00,NNW,342,6.0,14.0,37,-99.99,,,0.00,570.179993,,2013-04-15 18:52:00,
2013-04-15 13:02:00,38.0,14.0,-100.00,NNW,342,6.0,14.0,37,-99.99,,,0.00,570.179993,,2013-04-15 19:02:00,
2013-04-15 13:11:00,38.0,14.0,-100.00,NNW,342,6.0,14.0,37,-99.99,,,0.00,570.179993,,2013-04-15 19:11:00,
2013-04-15 13:48:00,40.0,15.0,-100.00,NNW,340,7.0,18.0,35,-99.99,,,-99.99,611.080017,,2013-04-15 19:48:00,
2013-04-15 14:00:00,40.0,15.0,-100.00,NNW,340,7.0,18.0,35,-99.99,,,-99.99,611.080017,,2013-04-15 20:00:00,
2013-04-15 14:02:00,40.0,15.0,-100.00,NNW,340,7.0,18.0,35,-99.99,,,-99.99,611.080017,,2013-04-15 20:02:00,
2013-04-15 14:11:00,40.0,15.0,-100.00,NNW,340,7.0,18.0,35,-99.99,,,-99.99,611.080017,,2013-04-15 20:11:00,
2013-04-15 14:42:00,41.0,15.0,-100.00,NNW,343,7.0,17.0,34,-99.99,,,0.00,545.770020,,2013-04-15 20:42:00,
2013-04-15 14:52:00,41.0,15.0,-100.00,NNW,343,7.0,17.0,34,-99.99,,,0.00,545.770020,,2013-04-15 20:52:00,
2013-04-15 15:02:00,41.0,15.0,-100.00,NNW,343,7.0,17.0,34,-99.99,,,0.00,545.770020,,2013-04-15 21:02:00,
2013-04-15 15:11:00,41.0,15.0,-100.00,NNW,343,7.0,17.0,34,-99.99,,,0.00,545.770020,,2013-04-15 21:11:00,
2013-04-15 15:42:00,42.0,16.0,-100.00,NNW,344,6.0,16.0,34,-99.99,,,0.00,558.900024,,2013-04-15 21:42:00,
2013-04-15 15:53:00,42.0,16.0,-100.00,NNW,344,6.0,16.0,34,-99.99,,,0.00,558.900024,,2013-04-15 21:53:00,
2013-04-15 16:02:00,42.0,16.0,-100.00,NNW,344,6.0,16.0,34,-99.99,,,0.00,558.900024,,2013-04-15 22:02:00,
2013-04-15 16:13:00,42.0,16.0,-100.00,NNW,344,6.0,16.0,34,-99.99,,,0.00,558.900024,,2013-04-15 22:13:00,
2013-04-15 16:42:00,41.0,15.0,-100.00,NNW,342,8.0,18.0,34,-99.99,,,0.00,373.649994,,2013-04-15 22:42:00,
2013-04-15 16:52:00,41.0,15.0,-100.00,NNW,342,8.0,18.0,34,-99.99,,,0.00,373.649994,,2013-04-15 22:52:00,
2013-04-15 17:02:00,41.0,15.0,-100.00,NNW,342,8.0,18.0,34,-99.99,,,0.00,373.649994,,2013-04-15 23:02:00,
2013-04-15 17:12:00,41.0,15.0,-100.00,NNW,342,8.0,18.0,34,-99.99,,,0.00,373.649994,,2013-04-15 23:12:00,
2013-04-15 17:42:00,41.0,15.0,-100.00,North,6,6.0,18.0,34,-99.99,,,0.00,364.579987,,2013-04-15 23:42:00,
2013-04-15 17:52:00,41.0,15.0,-100.00,North,6,6.0,18.0,34,-99.99,,,0.00,364.579987,,2013-04-15 23:52:00,
2013-04-15 18:02:00,41.0,15.0,-100.00,North,6,6.0,18.0,34,-99.99,,,0.00,364.579987,,2013-04-16 00:02:00,
2013-04-15 18:11:00,41.0,15.0,-100.00,North,6,6.0,18.0,34,-99.99,,,0.00,364.579987,,2013-04-16 00:11:00,
2013-04-15 19:42:00,38.0,12.0,-100.00,NNE,14,5.0,11.0,34,-99.99,,,0.00,94.720001,,2013-04-16 01:42:00,
2013-04-15 19:52:00,38.0,12.0,-100.00,NNE,14,5.0,11.0,34,-99.99,,,0.00,94.720001,,2013-04-16 01:52:00,
2013-04-15 20:02:00,38.0,12.0,-100.00,NNE,14,5.0,11.0,34,-99.99,,,0.00,94.720001,,2013-04-16 02:02:00,
2013-04-15 20:12:00,38.0,12.0,-100.00,NNE,14,5.0,11.0,34,-99.99,,,0.00,94.720001,,2013-04-16 02:12:00,
2013-04-15 20:42:00,35.0,10.0,-100.00,NE,50,5.0,11.0,35,-99.99,,,0.00,14.640000,,2013-04-16 02:42:00,
2013-04-15 20:52:00,35.0,10.0,-100.00,NE,50,5.0,11.0,35,-99.99,,,0.00,14.640000,,2013-04-16 02:52:00,
2013-04-15 21:02:00,35.0,10.0,-100.00,NE,50,5.0,11.0,35,-99.99,,,0.00,14.640000,,2013-04-16 03:02:00,
2013-04-15 21:12:00,35.0,10.0,-100.00,NE,50,5.0,11.0,35,-99.99,,,0.00,14.640000,,2013-04-16 03:12:00,
2013-04-15 21:43:00,33.0,10.0,-100.00,ENE,58,7.0,16.0,37,-99.99,,,0.00,0.000000,,2013-04-16 03:43:00,
2013-04-15 21:52:00,33.0,10.0,-100.00,ENE,58,7.0,16.0,37,-99.99,,,0.00,0.000000,,2013-04-16 03:52:00,
2013-04-15 22:02:00,33.0,10.0,-100.00,ENE,58,7.0,16.0,37,-99.99,,,0.00,0.000000,,2013-04-16 04:02:00,
2013-04-15 22:12:00,33.0,10.0,-100.00,ENE,58,7.0,16.0,37,-99.99,,,0.00,0.000000,,2013-04-16 04:12:00,
2013-04-15 22:42:00,32.0,10.0,-100.00,SW,236,1.0,4.0,38,-99.99,,,0.00,0.000000,,2013-04-16 04:42:00,
2013-04-15 22:53:00,32.0,10.0,-100.00,SW,236,1.0,4.0,38,-99.99,,,0.00,0.000000,,2013-04-16 04:53:00,
2013-04-15 23:02:00,32.0,10.0,-100.00,SW,236,1.0,4.0,38,-99.99,,,0.00,0.000000,,2013-04-16 05:02:00,
2013-04-15 23:12:00,32.0,10.0,-100.00,SW,236,1.0,4.0,38,-99.99,,,0.00,0.000000,,2013-04-16 05:12:00,
2013-04-15 23:42:00,29.0,11.0,-100.00,NNW,342,4.0,12.0,45,-99.99,,,0.00,0.000000,,2013-04-16 05:42:00,
2013-04-15 23:52:00,29.0,11.0,-100.00,NNW,342,4.0,12.0,45,-99.99,,,0.00,0.000000,,2013-04-16 05:52:00,